OpenBCM V1.13 (Linux)

Packet Radio Mailbox

DB0FHN

[JN59NK Nuernberg]

 Login: GUEST





  
LU1HVK > KEP      10.01.20 17:46l 241 Lines 12023 Bytes #999 (0) @ WW
BID : 38639_LU1HVK
Read: DJ6UX GUEST
Subj: TLE 25 10
Path: DB0FHN<OE2XZR<OE5XBL<F1OYP<IZ3LSV<IW0QNL<JH4XSY<N3HYM<XE1FH<LU1HVK
Sent: 200110/1524Z 38639@LU1HVK.2594.CBA.ARG.SA LinBPQ6.0.19

                         _    _   _ _ _   ___     ___  __
                        | |  | | | / | | | \ \   / / |/ /
                        | |  | | | | | |_| |\ \ / /| ' /
                        | |__| |_| | |  _  | \ V / | . \
                        |_____\___/|_|_| |_|  \_/  |_|\_\

     BBS/NODO - CORDOBA (LEONES-FF87UH) - LU1HVK-4 NODO - LU1HVK-3 APRS

+----------------------------------------------------------------------------+
OSCAR 7
1  7530U 74089B   19297.86563682 -.00000027 +00000-0 +10991-3 0  9998
2  7530 101.7625 264.2884 0012459 098.9444 315.0041 12.53640473056349
OSCAR 11 (UoSAT 2)
1 14781U 84021B   19297.82144321 +.00000087 +00000-0 +16830-4 0  9996
2 14781 097.6042 316.4313 0007019 256.5853 103.4579 14.83114381896751
OSCAR 19 (LUSAT)
1 20442U 90005G   19297.87136749 -.00000012 +00000-0 +11785-4 0  9999
2 20442 098.6604 239.7191 0012567 128.1691 232.0627 14.32935731554675
EYESAT A
1 22825U 93061C   19297.88838727 +.00000014 +00000-0 +23401-4 0  9996
2 22825 098.9141 289.5149 0008262 353.1192 006.9874 14.30069304360006
ITAMSAT
1 22826U 93061D   19297.93011750 +.00000013 +00000-0 +23112-4 0  9990
2 22826 098.9080 289.5330 0008565 340.8583 019.2275 14.30403485360233
RADIO ROSTO
1 23439U 94085A   19297.93982880 -.00000032 +00000-0 +28259-3 0  9997
2 23439 064.8152 268.7277 0145252 088.1781 273.5772 11.27568541022355
JAS 2
1 24278U 96046B   19297.91636127 -.00000031 +00000-0 +72684-5 0  9998
2 24278 098.5573 074.0465 0349302 267.5933 088.5182 13.53094329144891
TECHSAT 1B
1 25397U 98043D   19297.88194060 -.00000018 +00000-0 +11452-4 0  9991
2 25397 098.6993 236.5266 0002056 053.7189 306.4179 14.23672813105898
ISS (ZARYA)
1 25544U 98067A   19298.09023148  .00000629  00000-0  18916-4 0  9992
2 25544  51.6447  77.1468 0006699 184.0792 148.9869 15.50216800195405
PCSAT
1 26931U 01043C   19297.72299229 -.00000051  00000-0  12118-4 0  9993
2 26931  67.0531  33.2942 0007485 267.4008  92.6236 14.30556033943283
SAUDISAT 1C
1 27607U 02058C   19297.84322974 +.00000012 +00000-0 +22480-4 0  9997
2 27607 064.5567 017.7862 0074337 231.5711 127.8703 14.75581875905814
CUTE-1
1 27844U 03031E   19297.90797753 +.00000067 +00000-0 +49677-4 0  9997
2 27844 098.6853 304.2100 0010284 025.9902 334.1790 14.22201106846473
CUBESAT XI 4
1 27848U 03031J   19297.93671750 +.00000053 +00000-0 +44026-4 0  9990
2 27848 098.6927 304.7642 0010371 037.1455 323.0438 14.21793333846338
MOZHAYETS 4
1 27939U 03042A   19297.95424299 +.00000096 +00000-0 +25869-4 0  9990
2 27939 098.0589 071.4090 0013386 026.8777 333.3126 14.66811397859346
CUBESAT XI 5
1 28895U 05043F   19297.89162282 +.00000136 +00000-0 +35078-4 0  9997
2 28895 097.9780 076.3699 0015713 309.8344 050.1475 14.63702664746000
CUTE-1.7+APD II
1 32785U 08021C   19297.82745865 +.00000214 +00000-0 +28709-4 0  9996
2 32785 097.5569 291.5455 0012653 191.6167 168.4761 14.88361449622671
DELFI C3
1 32789U 08021G   19297.89530910 +.00001306 +00000-0 +90677-4 0  9996
2 32789 097.4507 343.6128 0013242 052.0926 308.1497 15.07193927626174
SEEDS
1 32791U 08021J   19297.56245763  .00000385  00000-0  44326-4 0  9998
2 32791  97.5320 297.3786 0013609 165.7353 194.4253 14.90892584623167
YUBELEINY
1 32953U 08025A   19297.85535118 +.00000020 +00000-0 +75656-4 0  9996
2 32953 082.5020 065.0491 0019189 207.7168 152.2896 12.43091899518233
PRISM (HITOMI)
1 33493U 09002B   19297.75545334  .00001035  00000-0  95827-4 0  9991
2 33493  98.1236 223.5721 0016470 115.8768 244.4152 14.96774820584309
KKS-1 (KISEKI)
1 33499U 09002H   19297.84754892 +.00000131 +00000-0 +27314-4 0  9990
2 33499 098.3396 140.5932 0009632 151.7618 208.4114 14.75472022577699
SWISSCUBE
1 35932U 09051B   19297.46110924 +.00000152 +00000-0 +45433-4 0  9993
2 35932 098.5991 107.2742 0008469 129.0590 231.1362 14.56321170535338
BEESAT
1 35933U 09051C   19297.73125754 +.00000107 +00000-0 +35262-4 0  9990
2 35933 098.6009 109.3634 0006520 138.4517 221.7177 14.56405625535441
ITUPSAT 1
1 35935U 09051E   19297.72547229  .00000081  00000-0  29765-4 0  9998
2 35935  98.6117 109.5851 0008830 138.3939 221.7930 14.55560542535265
XIWANG-1 (HOPE-1)
1 36122U 09072B   19297.72754909 -.00000049 +00000-0 -18500-4 0  9996
2 36122 100.0788 294.1134 0007968 052.9644 307.2198 13.16351456473722
TISAT 1
1 36799U 10035E   19297.91764240 +.00000520 +00000-0 +58408-4 0  9990
2 36799 098.1718 094.4607 0012836 030.9922 329.2050 14.91183653503678
JUGNU
1 37839U 11058B   19297.39158626  .00000323  00000-0  30160-4 0  9995
2 37839  19.9617 280.3867 0018673 295.2643 218.6114 14.12662319415339
SRMSAT
1 37841U 11058D   19297.47892361 +.00000299 +00000-0 +19217-4 0  9990
2 37841 019.9733 339.2747 0011794 159.3003 335.7503 14.10641457414665
M-CUBED/EXP-1 PRIME
1 37855U 11061F   19297.86343390 +.00001888 +00000-0 +10119-3 0  9991
2 37855 101.7184 259.2733 0172972 056.7469 305.0185 15.05675201435598
HORYU 2
1 38340U 12025D   19297.92716679 +.00000192 +00000-0 +35999-4 0  9994
2 38340 098.3160 340.2793 0012715 077.7764 282.4867 14.75763585389669
STRAND 1
1 39090U 13009E   19297.86534625 +.00000036 +00000-0 +27701-4 0  9991
2 39090 098.4752 141.6050 0008046 268.7139 091.3125 14.35101579348753
SOMP
1 39134U 13015E   19297.70142302 +.00001265 +00000-0 +66251-4 0  9995
2 39134 064.8627 325.6362 0037217 282.8034 076.8936 15.20419242359678
BEESAT 3
1 39135U 13015F   19297.85224950 +.00000996 +00000-0 +58396-4 0  9993
2 39135 064.8685 345.2666 0037789 289.2001 070.5037 15.17672903359301
BEESAT 2
1 39136U 13015G   19297.54262429 +.00000884 +00000-0 +54038-4 0  9998
2 39136 064.8694 350.4587 0029237 294.3497 065.4577 15.17088259359179
CUBEBUG 1
1 39153U 13018D   19297.83091020 +.00000210 +00000-0 +34304-4 0  9996
2 39153 097.9815 035.2568 0017887 140.1370 220.1159 14.80611903350694
ZACUBE
1 39417U 13066B   19297.92849590 +.00000245 +00000-0 +37122-4 0  9994
2 39417 097.5625 304.2229 0058270 334.8994 024.9389 14.81165796320024
TRITON 1
1 39427U 13066M   19297.88297891 +.00000209 +00000-0 +40901-4 0  9990
2 39427 097.6928 267.4479 0115050 114.7335 246.5896 14.67893856316954
GOMX 1
1 39430U 13066Q   19297.91401450 +.00000140 +00000-0 +34545-4 0  9997
2 39430 097.7608 246.1125 0150179 209.6489 149.6154 14.59299125315309
HUMSAT D
1 39433U 13066T   19297.75664905 +.00000348 +00000-0 +39146-4 0  9990
2 39433 097.5398 339.9381 0029624 231.4508 128.4057 14.92278724320993
CUBEBUG 2
1 39440U 13066AA  19297.88902640 +.00000267 +00000-0 +43948-4 0  9998
2 39440 097.6109 288.8106 0080980 029.4499 331.1238 14.75903011317686
FUNCUBE 1
1 39444U 13066AE  19297.85787303 +.00000300 +00000-0 +43301-4 0  9997
2 39444 097.5595 306.2215 0057223 328.3792 031.3988 14.81995162318323
UWE-3
1 39446U 13066AG  19297.94424206 +.00000262 +00000-0 +41401-4 0  9995
2 39446 097.5860 296.0077 0070087 002.8030 357.3561 14.78438246317625
SPROUT
1 39770U 14029E   19297.85353088  .00000501  00000-0  61403-4 0  9994
2 39770  97.8903  40.3591 0009593  31.1486 329.0297 14.87468237293887
UNISAT 6
1 40012U 14033C   19297.84074357 +.00000196 +00000-0 +36440-4 0  9991
2 40012 097.7380 158.8115 0059397 045.2675 315.3347 14.74021758287567
DUCHIFAT 1
1 40021U 14033M   19297.75357722  .00000517  00000-0  58515-4 0  9995
2 40021  97.9257 222.7776 0012877 354.4158   5.6914 14.90713053290623
QB50P1
1 40025U 14033R   19297.78682765  .00000321  00000-0  40150-4 0  9999
2 40025  97.9047 217.2505 0012620   4.8125 355.3210 14.89004162290388
CHUBUSAT 1
1 40300U 14070C   19297.79503622 +.00000491 +00000-0 +24278-4 0  9992
2 40300 097.3155 008.6708 0019691 329.4708 171.0066 15.22214388275503
NUDT-PHONESAT
1 40900U 15049B   19297.76468917  .00001667  00000-0  73371-4 0  9993
2 40900  97.4379 305.8706 0014376  95.4647 349.6704 15.23169437227150
ZDPS 2A
1 40901U 15049C   19297.95954282 +.00000495 +00000-0 +27716-4 0  9990
2 40901 097.4628 301.9531 0014743 113.9123 276.3050 15.17884705226697
ZDPS 2B
1 40902U 15049D   19297.93758931 +.00000982 +00000-0 +51845-4 0  9993
2 40902 097.4579 299.3239 0014975 111.4741 306.7681 15.17757113226661
XW-2A
1 40903U 15049E   19297.75519480  .00001480  00000-0  36365-4 0  9992
2 40903  97.3240 341.1666 0014650  45.7553  91.3529 15.42220035229988
KAITUO 1A
1 40904U 15049F   19297.95867760 +.00000105 +00000-0 +90184-5 0  9995
2 40904 097.4719 297.8062 0015843 120.1056 297.3897 15.15468664226423
OBJECT G
1 40905U 15049G   19297.93382704 +.00000433 +00000-0 +27121-4 0  9998
2 40905 097.4769 295.2003 0016924 115.6193 309.8790 15.14369611226284
XW-2C
1 40906U 15049H   19297.87181670  .00000626  00000-0  36159-4 0  9996
2 40906  97.4726 297.8628 0016263 111.9753 332.5977 15.15791761226417
XW-2D
1 40907U 15049J   19297.95968045 +.00000348 +00000-0 +21547-4 0  9991
2 40907 097.4707 297.6310 0015652 109.1363 305.1719 15.15987867226447
LILACSAT 2
1 40908U 15049K   19297.95218199 +.00000074 +00000-0 +76630-5 0  9990
2 40908 097.4841 296.3036 0017176 116.3711 298.1140 15.13870006226216
XW-2F
1 40910U 15049M   19297.73846525  .00000931  00000-0  49726-4 0  9996
2 40910  97.4662 299.6098 0016355 102.1255 344.4221 15.17482483226439
XW-2B
1 40911U 15049N   19297.93327395 +.00000687 +00000-0 +39236-4 0  9991
2 40911 097.4724 298.2753 0015507 109.1706 310.4118 15.15918835226338
KAITUO 1B
1 40912U 15049P   19297.95873001 +.00000827 +00000-0 +41686-4 0  9992
2 40912 097.4513 303.6708 0016426 085.1350 304.6392 15.19816346226792
TIANWANG 1C (TW-1C)
1 40926U 15051B   19297.81738703  .00011277  00000-0  15057-3 0  9997
2 40926  97.1215 343.9193 0005667 250.6083 198.8200 15.58220805230096
TIANWANG 1B (TW-1B)
1 40927U 15051C   19297.78356543  .00010482  00000-0  14947-3 0  9996
2 40927  97.1241 342.9914 0005712 265.2651 186.7200 15.56464904229924
